CZ-6A DEB, 56273

Orbit data source: Space-Track

CZ-6A DEB, 56273 is space debris in SSO originally from a launch on Fri, 11 Nov 2022 UTC launched from the Taiyaun Space Center, China (TSC). Debris objects in space refer to the collection of defunct objects orbiting the Earth. Examples of debris include non-operational satellites, rocket bodies, and fragments generated from explosions, collisions, or faulty payload assembly.

Loading next visibility...
Identifier
56273, 2022-151ACR
Orbit
SSO
Country
Flag of CNCN / PRC
Related business
Manufacturer
SAST
Mission
Spacecraft
Bus & Motor
Unknown
Mass
Unknown
Launch date (UTC)
2022-11-11 (3 years ago)
Launch vehicle
Unknown
Launch site
Taiyaun Space Center, China (TSC)
Object type
Payload
Rocket body
Debris
Shape & HBR
Unknown shape, 0.1 m
Radar Cross Section
Small (<0.1 m²)

Expand to show TLE details & history
Last TLE update: 1 day ago

TLE from 1 day ago
0 CZ-6A DEB
1 56273U 22151ACR 25349.04295021  .00003864  00000-0  73638-3 0  9991
2 56273  98.5032  23.8250 0129230 116.6264 244.8240 14.59379610148524
Epoch: 2025-12-15T01:01Z
TLE epoch observation values (Epoch: 2025-12-15T01:01:50.898Z)
Latitude
-0.00004°
Longitude
-75.58426°
Altitude
738.007 km
Speed
7.465 km/s
True Right ascension
01h 35m 18s
True Declination
0° 00' 00"
Sunlit
Object was in full shadow at epoch
Visualization orbit readout
Latitude
Unknown
Longitude
Unknown
Altitude
Unknown
Speed
Unknown
Apparent Right ascension
Unknown
Apparent Declination
Unknown
Sunlit
N/A
Visualization observer readout
Local Sidereal Time
08:21:34
Azimuth
Unknown
Elevation
Unknown
Doppler factor
Unknown
Orbital elements
Apogee altitude
783.644 km
Perigee altitude
600.902 km
Semi-major axis
7,070.41 km
Eccentricity
0.01292
Inclination
98.5032°
RAAN
23.825°
Arg. of periapsis
116.6264°
True anomaly
243.49308°
Mean anomaly
244.824°
Eccentric anomaly
244.15761°
Mean motion
3.6507 °/min
Orbital period
98.61 mins
BSTAR
0.00073638
Loading maneuver chart data...
Computing Atmospheric mass density...
Loading historical data...
Loading historical data...
Loading historical data...
Loading historical data...
Loading historical data...
Loading historical data...
Loading historical data...

Documentation

Showing up to 5 results
|